{"data":{"norad_id":65970,"intl_designator":"2025-228Z","name":"KUIPER-00157","alt_names":[],"object_type":"PAYLOAD","status":"ACTIVE","operator":null,"country":"US","launch_date":"2025-10-14","launch_site_code":"AFETR","launch_vehicle":null,"mission":null,"orbit_class":"UNKNOWN","rcs_meters":null,"size_class":null,"mass_kg":null,"dimensions":null,"purposes":[],"wikipedia_slug":null,"has_3d_model":false,"image_url":null,"decayed_at":null,"tle_current":{"epoch":"2026-09-20T21:46:10.982784Z","epoch_age_seconds":105338,"freshness":"FRESH","line1":"1 65970U 25228Z   26263.90707156  .00001876  00000+0  29625-3 0  9998","line2":"2 65970  51.9020 194.5808 0001700 132.4767 227.6338 14.76656231 52457","mean_motion":14.76656231,"eccentricity":0.00017,"inclination_deg":51.902,"raan_deg":194.5808,"arg_perigee_deg":132.4767,"mean_anomaly_deg":227.6338,"bstar":0.00029625,"rev_number":5245,"period_min":97.517619183771,"perigee_km":638.70563422615,"apogee_km":641.09176636425,"semimajor_km":7018.0357002952,"source":"CELESTRAK","updated_at":"2026-09-21T09:00:15.684727Z"}}}